Time,TemperatureF,DewpointF,PressureIn,WindDirection,WindDirectionDegrees,WindSpeedMPH,WindSpeedGustMPH,Humidity,HourlyPrecipIn,Conditions,Clouds,dailyrainin,SolarRadiationWatts/m^2,SoftwareType,DateUTC
2013-01-26 00:01:00,-7.3,-15.1,23.25,West,269,0.0,0.0,68,0.00,,,0.00,0,Wunderground v.1.15,2013-01-26 05:01:00,
2013-01-26 00:10:00,-7.8,-15.3,23.25,West,269,0.0,0.0,69,0.00,,,0.00,0,Wunderground v.1.15,2013-01-26 05:10:00,
2013-01-26 00:20:00,-8.3,-15.8,23.25,West,269,0.0,0.0,69,0.00,,,0.00,0,Wunderground v.1.15,2013-01-26 05:20:00,
2013-01-26 00:30:00,-9.0,-16.4,23.25,West,269,0.0,0.0,69,0.00,,,0.00,0,Wunderground v.1.15,2013-01-26 05:30:00,
2013-01-26 00:40:00,-9.9,-17.3,23.25,West,269,0.0,0.0,69,0.00,,,0.00,0,Wunderground v.1.15,2013-01-26 05:40:00,
2013-01-26 00:50:00,-10.4,-17.5,23.25,West,269,0.0,0.0,70,0.00,,,0.00,0,Wunderground v.1.15,2013-01-26 05:50:00,
2013-01-26 01:10:00,-10.6,-17.4,23.25,West,269,0.0,0.0,71,0.00,,,0.00,0,Wunderground v.1.15,2013-01-26 06:10:00,
2013-01-26 01:20:00,-10.8,-17.9,23.25,West,269,0.0,0.0,70,0.00,,,0.00,0,Wunderground v.1.15,2013-01-26 06:20:00,
2013-01-26 01:31:00,-11.1,-18.2,23.25,West,269,0.0,0.0,70,0.00,,,0.00,0,Wunderground v.1.15,2013-01-26 06:31:00,
2013-01-26 01:40:00,-11.3,-18.4,23.25,West,269,0.0,0.0,70,0.00,,,0.00,0,Wunderground v.1.15,2013-01-26 06:40:00,
2013-01-26 01:50:00,-11.3,-18.4,23.25,West,269,0.0,0.0,70,0.00,,,0.00,0,Wunderground v.1.15,2013-01-26 06:50:00,
2013-01-26 02:01:00,-11.8,-18.8,23.25,West,269,0.0,0.0,70,0.00,,,0.00,0,Wunderground v.1.15,2013-01-26 07:01:00,
2013-01-26 02:10:00,-12.1,-19.1,23.25,West,269,0.0,0.0,70,0.00,,,0.00,0,Wunderground v.1.15,2013-01-26 07:10:00,
2013-01-26 02:20:00,-12.3,-19.3,23.25,West,269,0.0,0.0,70,0.00,,,0.00,0,Wunderground v.1.15,2013-01-26 07:20:00,
2013-01-26 02:40:00,-12.3,-19.3,23.25,West,269,0.0,0.0,70,0.00,,,0.00,0,Wunderground v.1.15,2013-01-26 07:40:00,
2013-01-26 02:50:00,-12.9,-20.2,23.25,West,269,0.0,0.0,69,0.00,,,0.00,0,Wunderground v.1.15,2013-01-26 07:50:00,
2013-01-26 03:10:00,-14.1,-21.6,23.25,West,269,0.0,0.0,68,0.00,,,0.00,0,Wunderground v.1.15,2013-01-26 08:10:00,
2013-01-26 03:20:00,-14.1,-21.3,23.25,West,269,0.0,0.0,69,0.00,,,0.00,0,Wunderground v.1.15,2013-01-26 08:20:00,
2013-01-26 03:31:00,-14.7,-22.2,23.25,West,269,0.0,0.0,68,0.00,,,0.00,0,Wunderground v.1.15,2013-01-26 08:31:00,
2013-01-26 03:40:00,-14.9,-22.4,23.25,West,269,0.0,0.0,68,0.00,,,0.00,0,Wunderground v.1.15,2013-01-26 08:40:00,
2013-01-26 03:50:00,-14.9,-22.4,23.25,West,269,0.0,0.0,68,0.00,,,0.00,0,Wunderground v.1.15,2013-01-26 08:50:00,
2013-01-26 04:10:00,-14.7,-21.9,23.25,West,269,0.0,0.0,69,0.00,,,0.00,0,Wunderground v.1.15,2013-01-26 09:10:00,
2013-01-26 04:20:00,-14.7,-22.2,23.25,West,269,0.0,0.0,68,0.00,,,0.00,0,Wunderground v.1.15,2013-01-26 09:20:00,
2013-01-26 04:40:00,-15.9,-23.6,23.25,West,269,0.0,0.0,67,0.00,,,0.00,0,Wunderground v.1.15,2013-01-26 09:40:00,
2013-01-26 04:50:00,-16.2,-23.9,23.25,West,269,0.0,0.0,67,0.00,,,0.00,0,Wunderground v.1.15,2013-01-26 09:50:00,
2013-01-26 05:01:00,-16.2,-23.9,23.25,West,269,0.0,0.0,67,0.00,,,0.00,0,Wunderground v.1.15,2013-01-26 10:01:00,
2013-01-26 05:10:00,-16.5,-24.5,23.25,West,269,0.0,0.0,66,0.00,,,0.00,0,Wunderground v.1.15,2013-01-26 10:10:00,
2013-01-26 05:20:00,-17.0,-25.0,23.25,West,269,0.0,0.0,66,0.00,,,0.00,0,Wunderground v.1.15,2013-01-26 10:20:00,
2013-01-26 05:40:00,-17.6,-25.5,23.25,West,269,0.0,0.0,66,0.00,,,0.00,0,Wunderground v.1.15,2013-01-26 10:40:00,
2013-01-26 05:50:00,-17.3,-25.3,23.25,West,269,0.0,0.0,66,0.00,,,0.00,0,Wunderground v.1.15,2013-01-26 10:50:00,
2013-01-26 06:10:00,-16.2,-23.9,23.25,West,269,0.0,0.0,67,0.00,,,0.00,0,Wunderground v.1.15,2013-01-26 11:10:00,
2013-01-26 06:20:00,-15.9,-23.6,23.25,West,269,0.0,0.0,67,0.00,,,0.00,0,Wunderground v.1.15,2013-01-26 11:20:00,
2013-01-26 06:31:00,-16.7,-24.7,23.25,West,269,0.0,0.0,66,0.00,,,0.00,0,Wunderground v.1.15,2013-01-26 11:31:00,
2013-01-26 06:40:00,-17.9,-26.1,23.25,West,269,0.0,0.0,65,0.00,,,0.00,0,Wunderground v.1.15,2013-01-26 11:40:00,
2013-01-26 06:50:00,-18.2,-26.4,23.26,West,269,0.0,0.0,65,0.00,,,0.00,0,Wunderground v.1.15,2013-01-26 11:50:00,
2013-01-26 07:10:00,-17.6,-25.5,23.26,West,269,0.0,0.0,66,0.00,,,0.00,0,Wunderground v.1.15,2013-01-26 12:10:00,
2013-01-26 07:20:00,-17.3,-25.3,23.26,West,269,0.0,0.0,66,0.00,,,0.00,5,Wunderground v.1.15,2013-01-26 12:20:00,
2013-01-26 07:31:00,-17.6,-25.5,23.26,West,269,0.0,0.0,66,0.00,,,0.00,12,Wunderground v.1.15,2013-01-26 12:31:00,
2013-01-26 07:40:00,-17.6,-25.5,23.26,West,269,0.0,0.0,66,0.00,,,0.00,21,Wunderground v.1.15,2013-01-26 12:40:00,
2013-01-26 07:50:00,-17.6,-25.5,23.26,West,269,0.0,0.0,66,0.00,,,0.00,35,Wunderground v.1.15,2013-01-26 12:50:00,
2013-01-26 08:10:00,-15.7,-23.2,23.26,West,269,0.0,0.0,68,0.00,,,0.00,72,Wunderground v.1.15,2013-01-26 13:10:00,
2013-01-26 08:20:00,-13.9,-21.1,23.26,West,269,0.0,0.0,69,0.00,,,0.00,62,Wunderground v.1.15,2013-01-26 13:20:00,
2013-01-26 08:40:00,-13.6,-21.4,23.26,West,269,0.0,0.0,67,0.00,,,0.00,206,Wunderground v.1.15,2013-01-26 13:40:00,
2013-01-26 08:50:00,-11.6,-18.9,23.26,West,269,0.0,0.0,69,0.00,,,0.00,211,Wunderground v.1.15,2013-01-26 13:50:00,
2013-01-26 09:01:00,-8.0,-14.9,23.26,West,269,0.0,0.0,71,0.00,,,0.00,193,Wunderground v.1.15,2013-01-26 14:01:00,
2013-01-26 09:10:00,-6.6,-13.8,23.26,West,269,0.0,0.0,70,0.00,,,0.00,223,Wunderground v.1.15,2013-01-26 14:10:00,
2013-01-26 09:20:00,-4.0,-10.8,23.26,West,269,0.0,0.0,72,0.00,,,0.00,244,Wunderground v.1.15,2013-01-26 14:20:00,
2013-01-26 09:40:00,0.8,-7.0,23.26,West,267,1.0,1.0,69,0.00,,,0.00,257,Wunderground v.1.15,2013-01-26 14:40:00,
2013-01-26 09:50:00,2.3,-6.8,23.26,West,267,1.0,1.0,65,0.00,,,0.00,308,Wunderground v.1.15,2013-01-26 14:50:00,
2013-01-26 10:00:00,4.0,-6.8,23.26,West,267,0.0,0.0,60,0.00,,,0.00,297,Wunderground v.1.15,2013-01-26 15:00:00,
2013-01-26 10:10:00,4.9,-7.0,23.26,West,267,1.0,1.0,57,0.00,,,0.00,281,Wunderground v.1.15,2013-01-26 15:10:00,
2013-01-26 10:20:00,5.7,-7.8,23.26,West,267,0.0,0.0,53,0.00,,,0.00,295,Wunderground v.1.15,2013-01-26 15:20:00,
2013-01-26 10:31:00,5.9,-7.6,23.26,WSW,255,1.0,1.0,53,0.00,,,0.00,327,Wunderground v.1.15,2013-01-26 15:31:00,
2013-01-26 10:40:00,5.7,-8.2,23.26,WSW,254,2.0,2.0,52,0.00,,,0.00,359,Wunderground v.1.15,2013-01-26 15:40:00,
2013-01-26 10:50:00,6.8,-7.1,23.26,WSW,254,1.0,1.0,52,0.00,,,0.00,390,Wunderground v.1.15,2013-01-26 15:50:00,
2013-01-26 11:10:00,8.3,-7.8,23.26,WSW,257,1.0,1.0,47,0.00,,,0.00,362,Wunderground v.1.15,2013-01-26 16:10:00,
2013-01-26 11:20:00,8.5,-8.1,23.26,SW,227,2.0,2.0,46,0.00,,,0.00,394,Wunderground v.1.15,2013-01-26 16:20:00,
2013-01-26 11:30:00,9.2,-8.8,23.26,WSW,242,1.0,1.0,43,0.00,,,0.00,304,Wunderground v.1.15,2013-01-26 16:30:00,
2013-01-26 11:40:00,9.4,-8.6,23.26,SW,216,1.0,5.0,43,0.00,,,0.00,367,Wunderground v.1.15,2013-01-26 16:40:00,
2013-01-26 11:50:00,9.4,-7.7,23.26,WNW,285,3.0,3.0,45,0.00,,,0.00,357,Wunderground v.1.15,2013-01-26 16:50:00,
2013-01-26 12:10:00,9.4,-7.7,23.26,West,271,2.0,2.0,45,0.00,,,0.00,255,Wunderground v.1.15,2013-01-26 17:10:00,
2013-01-26 12:20:00,9.2,-7.9,23.26,WNW,301,3.0,5.0,45,0.00,,,0.00,359,Wunderground v.1.15,2013-01-26 17:20:00,
2013-01-26 12:30:00,9.8,-8.7,23.26,WSW,248,4.0,4.0,42,0.00,,,0.00,366,Wunderground v.1.15,2013-01-26 17:30:00,
2013-01-26 12:40:00,10.1,-8.5,23.26,WSW,253,3.0,4.0,42,0.00,,,0.00,385,Wunderground v.1.15,2013-01-26 17:40:00,
2013-01-26 12:50:00,10.8,-7.4,23.26,NW,311,3.0,3.0,43,0.00,,,0.00,322,Wunderground v.1.15,2013-01-26 17:50:00,
2013-01-26 13:10:00,11.3,-6.4,23.26,SW,233,5.0,5.0,44,0.00,,,0.00,438,Wunderground v.1.15,2013-01-26 18:10:00,
2013-01-26 13:20:00,10.8,-7.4,23.26,South,188,5.0,10.0,43,0.00,,,0.00,420,Wunderground v.1.15,2013-01-26 18:20:00,
2013-01-26 13:40:00,11.0,-7.7,23.26,SSW,213,6.0,6.0,42,0.00,,,0.00,483,Wunderground v.1.15,2013-01-26 18:40:00,
2013-01-26 13:50:00,10.6,-7.5,23.26,SW,215,5.0,8.0,43,0.00,,,0.00,250,Wunderground v.1.15,2013-01-26 18:50:00,
2013-01-26 14:10:00,9.9,-6.3,23.26,SW,235,5.0,5.0,47,0.00,,,0.00,216,Wunderground v.1.15,2013-01-26 19:10:00,
2013-01-26 14:20:00,9.9,-6.8,23.26,South,185,5.0,7.0,46,0.00,,,0.00,185,Wunderground v.1.15,2013-01-26 19:20:00,
2013-01-26 14:31:00,9.6,-5.8,23.26,WSW,239,5.0,7.0,49,0.00,,,0.00,192,Wunderground v.1.15,2013-01-26 19:31:00,
2013-01-26 14:40:00,9.2,-4.9,23.26,SW,223,6.0,6.0,52,0.00,,,0.00,185,Wunderground v.1.15,2013-01-26 19:40:00,
2013-01-26 14:50:00,9.6,-3.7,23.26,SW,234,4.0,6.0,54,0.00,,,0.00,160,Wunderground v.1.15,2013-01-26 19:50:00,
2013-01-26 15:10:00,10.1,-2.5,23.26,South,187,4.0,5.0,56,0.00,,,0.00,127,Wunderground v.1.15,2013-01-26 20:10:00,
2013-01-26 15:20:00,10.4,-2.2,23.26,SW,216,4.0,6.0,56,0.00,,,0.00,105,Wunderground v.1.15,2013-01-26 20:20:00,
2013-01-26 15:40:00,11.1,-1.6,23.26,West,279,2.0,2.0,56,0.00,,,0.00,109,Wunderground v.1.15,2013-01-26 20:40:00,
2013-01-26 15:50:00,12.3,-0.4,23.26,WNW,292,3.0,4.0,56,0.00,,,0.00,84,Wunderground v.1.15,2013-01-26 20:50:00,
2013-01-26 16:00:00,13.4,-0.2,23.26,NNW,342,6.0,7.0,54,0.00,,,0.00,83,Wunderground v.1.15,2013-01-26 21:00:00,
2013-01-26 16:10:00,13.5,-0.1,23.26,NW,325,5.0,8.0,54,0.00,,,0.00,81,Wunderground v.1.15,2013-01-26 21:10:00,
2013-01-26 16:20:00,13.7,0.1,23.26,NW,309,5.0,8.0,54,0.00,,,0.00,67,Wunderground v.1.15,2013-01-26 21:20:00,
2013-01-26 16:40:00,11.5,-1.2,23.26,West,272,4.0,5.0,56,0.00,,,0.00,28,Wunderground v.1.15,2013-01-26 21:40:00,
2013-01-26 16:50:00,10.4,-1.8,23.26,West,263,4.0,4.0,57,0.00,,,0.00,14,Wunderground v.1.15,2013-01-26 21:50:00,
2013-01-26 17:00:00,9.8,-1.7,23.26,NW,306,4.0,5.0,59,0.00,,,0.00,0,Wunderground v.1.15,2013-01-26 22:00:00,
2013-01-26 17:10:00,9.4,-1.4,23.26,WSW,255,5.0,5.0,61,0.00,,,0.00,0,Wunderground v.1.15,2013-01-26 22:10:00,
2013-01-26 17:20:00,9.1,-1.0,23.26,WNW,295,5.0,6.0,63,0.00,,,0.00,0,Wunderground v.1.15,2013-01-26 22:20:00,
2013-01-26 17:31:00,8.7,-1.0,23.26,WSW,246,4.0,4.0,64,0.00,,,0.00,0,Wunderground v.1.15,2013-01-26 22:31:00,
2013-01-26 17:40:00,8.7,-0.3,23.27,WNW,297,5.0,5.0,66,0.00,,,0.00,0,Wunderground v.1.15,2013-01-26 22:40:00,
2013-01-26 17:50:00,8.3,-0.7,23.27,WNW,288,5.0,5.0,66,0.00,,,0.00,0,Wunderground v.1.15,2013-01-26 22:50:00,
2013-01-26 18:10:00,8.0,-0.7,23.27,West,264,5.0,10.0,67,0.00,,,0.00,0,Wunderground v.1.15,2013-01-26 23:10:00,
2013-01-26 18:20:00,7.8,-0.9,23.27,WNW,286,4.0,4.0,67,0.00,,,0.00,0,Wunderground v.1.15,2013-01-26 23:20:00,
2013-01-26 18:31:00,7.6,-1.1,23.27,West,260,5.0,5.0,67,0.00,,,0.00,0,Wunderground v.1.15,2013-01-26 23:31:00,
2013-01-26 18:40:00,7.3,-1.4,23.27,WSW,240,3.0,3.0,67,0.00,,,0.00,0,Wunderground v.1.15,2013-01-26 23:40:00,
2013-01-26 18:50:00,7.1,-1.6,23.27,WSW,243,3.0,3.0,67,0.00,,,0.00,0,Wunderground v.1.15,2013-01-26 23:50:00,
2013-01-26 19:00:00,6.9,-1.8,23.27,WNW,299,3.0,3.0,67,0.00,,,0.00,0,Wunderground v.1.15,2013-01-27 00:00:00,
2013-01-26 19:10:00,6.9,-1.8,23.27,WSW,249,3.0,5.0,67,0.00,,,0.00,0,Wunderground v.1.15,2013-01-27 00:10:00,
2013-01-26 19:20:00,6.8,-1.8,23.27,WNW,286,3.0,3.0,67,0.00,,,0.00,0,Wunderground v.1.15,2013-01-27 00:20:00,
2013-01-26 19:31:00,6.4,-2.2,23.27,WNW,286,2.0,4.0,67,0.00,,,0.00,0,Wunderground v.1.15,2013-01-27 00:31:00,
2013-01-26 19:40:00,6.2,-2.4,23.27,NW,307,3.0,3.0,67,0.00,,,0.00,0,Wunderground v.1.15,2013-01-27 00:40:00,
2013-01-26 19:50:00,6.0,-2.3,23.27,West,264,2.0,2.0,68,0.00,,,0.00,0,Wunderground v.1.15,2013-01-27 00:50:00,
2013-01-26 20:00:00,6.0,-2.3,23.27,WNW,294,2.0,2.0,68,0.00,,,0.00,0,Wunderground v.1.15,2013-01-27 01:00:00,
2013-01-26 20:10:00,5.9,-2.4,23.27,NW,321,2.0,4.0,68,0.00,,,0.00,0,Wunderground v.1.15,2013-01-27 01:10:00,
2013-01-26 20:20:00,5.5,-2.8,23.27,NW,317,2.0,2.0,68,0.00,,,0.00,0,Wunderground v.1.15,2013-01-27 01:20:00,
2013-01-26 20:40:00,4.9,-3.1,23.27,NW,310,1.0,2.0,69,0.00,,,0.00,0,Wunderground v.1.15,2013-01-27 01:40:00,
2013-01-26 20:50:00,4.9,-3.1,23.27,WNW,301,2.0,2.0,69,0.00,,,0.00,0,Wunderground v.1.15,2013-01-27 01:50:00,
2013-01-26 21:10:00,4.9,-2.7,23.27,NW,319,2.0,2.0,70,0.00,,,0.00,0,Wunderground v.1.15,2013-01-27 02:10:00,
2013-01-26 21:20:00,4.7,-2.9,23.27,NW,311,2.0,2.0,70,0.00,,,0.00,0,Wunderground v.1.15,2013-01-27 02:20:00,
2013-01-26 21:30:00,4.7,-2.9,23.27,WNW,298,3.0,3.0,70,0.00,,,0.00,0,Wunderground v.1.15,2013-01-27 02:30:00,
2013-01-26 21:40:00,4.7,-2.9,23.28,WNW,302,3.0,3.0,70,0.00,,,0.00,0,Wunderground v.1.15,2013-01-27 02:40:00,
2013-01-26 21:50:00,4.9,-2.7,23.28,WNW,300,3.0,3.0,70,0.00,,,0.00,0,Wunderground v.1.15,2013-01-27 02:50:00,
2013-01-26 22:01:00,4.9,-2.7,23.28,NW,307,2.0,2.0,70,0.00,,,0.00,0,Wunderground v.1.15,2013-01-27 03:01:00,
2013-01-26 22:10:00,5.1,-2.6,23.28,NW,306,3.0,4.0,70,0.00,,,0.00,0,Wunderground v.1.15,2013-01-27 03:10:00,
2013-01-26 22:20:00,5.1,-2.6,23.28,NW,306,3.0,5.0,70,0.00,,,0.00,0,Wunderground v.1.15,2013-01-27 03:20:00,
2013-01-26 22:30:00,4.9,-2.7,23.28,WNW,290,2.0,2.0,70,0.00,,,0.00,0,Wunderground v.1.15,2013-01-27 03:30:00,
2013-01-26 22:40:00,4.9,-2.7,23.28,WNW,300,2.0,2.0,70,0.00,,,0.00,0,Wunderground v.1.15,2013-01-27 03:40:00,
2013-01-26 22:50:00,4.6,-3.0,23.28,WNW,300,2.0,2.0,70,0.00,,,0.00,0,Wunderground v.1.15,2013-01-27 03:50:00,
2013-01-26 23:00:00,3.8,-3.5,23.28,WNW,300,1.0,1.0,71,0.00,,,0.00,0,Wunderground v.1.15,2013-01-27 04:00:00,
2013-01-26 23:10:00,3.3,-3.7,23.28,WNW,300,1.0,1.0,72,0.00,,,0.00,0,Wunderground v.1.15,2013-01-27 04:10:00,
2013-01-26 23:20:00,2.7,-4.3,23.28,WNW,300,0.0,0.0,72,0.00,,,0.00,0,Wunderground v.1.15,2013-01-27 04:20:00,
2013-01-26 23:40:00,1.7,-5.0,23.28,WNW,300,0.0,0.0,73,0.00,,,0.00,0,Wunderground v.1.15,2013-01-27 04:40:00,
2013-01-26 23:50:00,1.4,-5.0,23.28,WNW,300,0.0,2.0,74,0.00,,,0.00,0,Wunderground v.1.15,2013-01-27 04:50:00,